Regional Weather Roundup
Issued by NWS Sioux Falls, SD

Home | Current Version | Previous Version | Graphics & Text | Print | Product List | Glossary On
Versions: 1 2 3 4 5 6 7 8 9 10 11 12 13 14 15 16 17 18 19 20 21 22 23 24 25 26 27 28 29 30 31 32 33 34 35 36 37 38 39 40 41 42 43 44 45 46 47 48 49 50
000
ASUS43 KFSD 301102
RWRFSD

WEATHER ROUNDUP FOR SE SOUTH DAKOTA/SW MINNESOTA/NW IOWA
NATIONAL WEATHER SERVICE SIOUX FALLS SD
600 AM CDT MON MAY 30 2016

NOTE: "FAIR" INDICATES FEW OR NO CLOUDS BELOW 12,000 FEET WITH NO
SIGNIFICANT WEATHER AND OR OBSTRUCTIONS TO VISIBILITY.


SDZ038>040-050-052>070-301200-
SOUTHEAST SOUTH DAKOTA

CITY           SKY/WX    TMP DP  RH WIND       PRES   REMARKS
BROOKINGS      CLOUDY    60  53  77 S6        30.02S
CHAMBERLAIN    NOT AVBL
HURON          LGT RAIN  63  55  75 S6        29.93F
MADISON        FAIR      59  59 100 CALM      30.03F
MITCHELL       CLOUDY    61  57  87 N6        29.96F
SIOUX FALLS    MOCLDY    60  54  80 N7        30.00F
WINNER         CLOUDY    61  57  87 E17       29.96F
YANKTON        CLOUDY    63  55  77 CALM      29.97R
$$

MNZ071-072-080-081-089-090-097-098-301200-
SOUTHWEST MINNESOTA

CITY           SKY/WX    TMP DP  RH WIND       PRES   REMARKS
FAIRMONT       CLOUDY    61  54  77 W7        30.06R
JACKSON        CLOUDY    63  50  63 SW12      30.07R
LUVERNE        CLOUDY    61  52  72 E7        30.01F
MARSHALL       NOT AVBL
MONTEVIDEO     CLOUDY    57  52  82 SW5       30.01R
PIPESTONE      LGT RAIN  63  55  77 S10       30.02F
REDWOOD FALLS  MOCLDY    58  51  78 SW8       30.01R
TRACY          CLOUDY    64  54  70 SW12      30.04R
WINDOM         CLOUDY    63  54  72 CALM      30.05R
WORTHINGTON    LGT RAIN  61  53  75 CALM      30.04F
$$

IAZ001>003-012>014-020>022-031-032-NEZ013-014-SDZ071-301200-
NORTHWEST IOWA

CITY           SKY/WX    TMP DP  RH WIND       PRES   REMARKS
ESTHERVILLE    LGT RAIN  60  53  77 S12       30.07R
SIOUX CITY     PTCLDY    66  52  60 E12       29.98F
SPENCER        LGT RAIN  59  53  80 NE20      30.01F
STORM LAKE     CLOUDY    64  52  63 N14       30.05R
$$

ABBREVIATIONS USED IN REMARKS
   TC - TEMPERATURE IN CELSIUS
  WCI - WIND CHILL INDEX
   HX - HEAT INDEX
  VSB - VISIBILITY




USA.gov is the U.S. government's official web portal to all federal, state and local government web resources and services.